Flag for Germany Weather past 2 weeks in Langenfeld (Rheinland), North Rhine-Westphalia, Germany

Now
55 °F

Sunny.


Feels Like: 55 °F
Forecast: 49 / 70 °F
Wind: 3 mph from Southwest

Location: Duesseldorf

Current Time: May 23, 2015 at 7:48:34 AM

Latest Report: May 23, 2015 at 7:20 AM


Visibility: 10 mi

Pressure: 30.15 "Hg

Humidity: 82%

Dew point: 50 °F

Location of Langenfeld (Rheinland)Location

Historic Weather in Langenfeld (Rheinland) — Graph

°F

Langenfeld (Rheinland) temperature yesterday

Maximum temperature yesterday: 70 °F (at 3:50 PM)
Minimum temperature yesterday: 45 °F (at 5:20 AM)
Average temperature yesterday: 59 °F

Past Weeks' High & Low Weather Summary

 TemperatureHumidityPressure
High79 °F (May 11, 4:20 PM)100% (May 16, 3:50 PM)30.36 "Hg (May 16, 3:50 PM)
Low37 °F (May 21, 4:20 AM)32% (May 13, 6:20 PM)29.65 "Hg (May 18, 6:20 PM)
Average57 °F63%30.07 "Hg
* Reported May 8 6:20 AM — May 23 6:20 AM, Langenfeld (Rheinland), Weather by CustomWeather, © 2015

Note: Actual official high and low records may vary slightly from our data, if they occured in-between our weather recording intervals... More about our weather records

Advertising

Langenfeld (Rheinland) weather history for previous 24 hours

 ConditionsComfort  
Time TempWeatherWind HumidityBarometerVisibility
6:20 AM
Sat, May 23
54 °FClear.1 mph88%30.15 "Hg10 mi
5:50 AM54 °FClear.No wind88%30.15 "Hg10 mi
5:20 AM52 °FClear.1 mph88%30.15 "Hg10 mi
4:50 AM52 °FClear.2 mph88%30.15 "Hg10 mi
4:20 AM52 °FClear.2 mph88%30.15 "Hg10 mi
3:50 AM52 °FClear.2 mph88%30.15 "Hg10 mi
3:20 AM54 °FClear.No wind82%30.15 "Hg10 mi
2:50 AM54 °FClear.2 mph82%30.18 "Hg10 mi
2:20 AM54 °FClear.1 mph82%30.18 "Hg10 mi
1:50 AM54 °FClear.2 mph82%30.18 "Hg10 mi
1:20 AM54 °FClear.1 mph77%30.21 "Hg10 mi
12:50 AM54 °FClear.1 mph77%30.21 "Hg10 mi
12:20 AM54 °FClear.3 mph77%30.21 "Hg10 mi
11:50 PM
Fri, May 22
54 °FClear.6 mph77%30.21 "Hg10 mi
11:20 PM55 °FClear.3 mph72%30.21 "Hg10 mi
10:50 PM57 °FClear.2 mph63%30.21 "Hg10 mi
10:20 PM59 °FSunny.2 mph63%30.21 "Hg10 mi
9:50 PM63 °FSunny.3 mph56%30.18 "Hg10 mi
9:20 PM64 °FSunny.1 mph52%30.18 "Hg10 mi
8:50 PM64 °FSunny.5 mph49%30.18 "Hg10 mi
8:20 PM66 °FScattered clouds.3 mph43%30.18 "HgN/A
7:50 PM66 °FPassing clouds.3 mph43%30.18 "HgN/A
7:20 PM66 °FSunny.5 mph43%30.18 "Hg10 mi
6:50 PM66 °FSunny.3 mph43%30.18 "Hg10 mi
6:20 PM68 °FSunny.5 mph43%30.18 "Hg10 mi
5:50 PM68 °FSunny.3 mph38%30.21 "Hg10 mi
5:20 PM68 °FSunny.2 mph35%30.21 "Hg10 mi
4:50 PM70 °FPassing clouds.5 mph35%30.21 "HgN/A
4:20 PM68 °FSunny.2 mph38%30.21 "Hg10 mi
3:50 PM70 °FSunny.3 mph33%30.24 "Hg10 mi
3:20 PM68 °FSunny.3 mph38%30.24 "Hg10 mi
2:50 PM68 °FSunny.2 mph40%30.24 "Hg10 mi
2:20 PM66 °FPassing clouds.6 mph40%30.27 "HgN/A
1:50 PM66 °FSunny.1 mph43%30.27 "Hg10 mi
1:20 PM66 °FSunny.6 mph43%30.27 "Hg10 mi
12:50 PM64 °FSunny.3 mph40%30.30 "Hg10 mi
12:20 PM64 °FPartly sunny.6 mph43%30.30 "HgN/A
11:50 AM64 °FPartly sunny.2 mph40%30.30 "HgN/A
11:20 AM63 °FPassing clouds.5 mph49%30.30 "HgN/A
10:50 AM63 °FSunny.3 mph49%30.33 "Hg10 mi
10:20 AM61 °FSunny.2 mph55%30.33 "Hg10 mi
9:50 AM59 °FSunny.3 mph55%30.33 "Hg10 mi
9:20 AM57 °FSunny.2 mph59%30.33 "Hg10 mi
8:50 AM57 °FSunny.3 mph63%30.33 "Hg10 mi
8:20 AM55 °FSunny.2 mph72%30.33 "Hg10 mi
7:50 AM54 °FSunny.3 mph77%30.33 "Hg10 mi
7:20 AM50 °FSunny.3 mph88%30.33 "Hg10 mi
Weather by CustomWeather, © 2015

See weather overviewHow to use our weather pages